Regional Weather Roundup
Issued by NWS

Home | Current Version | Previous Version | Graphics & Text | Print | Product List | Glossary On
Versions: 1 2 3 4 5 6 7 8 9 10 11 12 13 14 15 16 17 18 19 20 21 22 23 24 25 26 27 28 29 30 31 32 33 34 35 36 37 38 39 40 41 42 43 44 45 46 47 48 49 50
000
ASUS43 KOAX 251502
RWRNE

WEATHER ROUNDUP FOR NEBRASKA
NATIONAL WEATHER SERVICE OMAHA NE
1000 AM CDT TUE JUL 25 2017

NOTES: SATELLITE DATA IS BEING USED TO AUGMENT CLOUD COVER ABOVE
       12000 FEET.
       "FAIR" INDICATES FEW OR NO CLOUDS BELOW 12,000 FEET WITH NO
       SIGNIFICANT WEATHER AND/OR OBSTRUCTIONS TO VISIBILITY.


NEZ001>004-019>022-054>056-251600-
NEBRASKA PANHANDLE

CITY           SKY/WX    TMP DP  RH WIND       PRES   REMARKS
SCOTTSBLUFF    MOSUNNY   79  59  50 VRB3      29.98R
ALLIANCE       CLOUDY    80  61  52 S9        29.97R
CHADRON        MOSUNNY   81  53  37 N8        29.94R
GORDON         FAIR      80  64  56 CALM      29.96R
SIDNEY         SUNNY     79  61  53 S10       30.03S
$$

NEZ057>060-069>072-079>082-251600-
SOUTHWEST NEBRASKA

CITY           SKY/WX    TMP DP  RH WIND       PRES   REMARKS
NORTH PLATTE   SUNNY     82  66  58 S13       29.98S
IMPERIAL       SUNNY     83  63  50 S10       29.99S
LEXINGTON      MOSUNNY   82  67  60 S15       30.00S
MCCOOK         SUNNY     87  67  51 S14       29.99S HX  90
OGALLALA       SUNNY     82  65  57 S7        29.99S
$$

NEZ005>010-023>029-035>040-094-251600-
NORTH CENTRAL NEBRASKA

CITY           SKY/WX    TMP DP  RH WIND       PRES   REMARKS
VALENTINE      SUNNY     89  60  37 W6        29.90S
AINSWORTH      SUNNY     87  64  45 SW18G24   29.92S
BROKEN BOW     SUNNY     86  66  51 S15G24    29.98S
O`NEILL        SUNNY     85  67  54 S20G25    29.93S
ORD            SUNNY     84  65  52 S14G21    29.95F
THEDFORD       SUNNY     87  64  47 S18       29.97S
$$

NEZ041-046>049-061>064-073>077-083>087-251600-
SOUTH CENTRAL NEBRASKA

CITY           SKY/WX    TMP DP  RH WIND       PRES   REMARKS
GRAND ISLAND   SUNNY     85  69  58 S13       30.00S
AURORA         SUNNY     82  71  69 S12       30.01S
HASTINGS       SUNNY     82  68  62 S12       30.02S
HEBRON         SUNNY     84  71  64 SW10      30.03S
HOLDREGE       MOSUNNY   81  65  58 S13G20    30.01F
KEARNEY        SUNNY     84  69  60 S20       30.00F
YORK           SUNNY     81  72  74 S10       30.02S
$$

NEZ011>018-030>034-042>045-251600-
NORTHEAST NEBRASKA

CITY           SKY/WX    TMP DP  RH WIND       PRES   REMARKS
NORFOLK        SUNNY     84  67  56 S16       29.96S
ALBION         SUNNY     85  70  60 SW15G21   29.97S HX  90
BLAIR          SUNNY     79  69  73 S16       30.01S
COLUMBUS       SUNNY     84  71  65 SW14      29.99S
FREMONT        SUNNY     81  70  70 S8        30.00F
TEKAMAH        SUNNY     81  69  67 S13       29.99S
WAYNE          SUNNY     83  76  78 S13       29.96S HX  91
$$

NEZ050>053-065>068-078-088>093-251600-
SOUTHEAST NEBRASKA

CITY           SKY/WX    TMP DP  RH WIND       PRES   REMARKS
LINCOLN        SUNNY     84  72  67 S9        30.01S
OMAHA EPPLEY   SUNNY     81  68  64 S17       30.01F
BEATRICE       SUNNY     84  72  68 S9        30.03S
FALLS CITY     SUNNY     81  70  69 S10       30.05S
NEBRASKA CITY  SUNNY     79  73  83 S12       30.04S
PLATTSMOUTH    SUNNY     79  69  72 S12       30.03F
$$

NEZ044-045-051>053-067-251600-
OMAHA AREA

CITY           SKY/WX    TMP DP  RH WIND       PRES   REMARKS
OMAHA EPPLEY   SUNNY     81  68  64 S17       30.01F
BLAIR          SUNNY     79  69  73 S16       30.01S
FREMONT        SUNNY     81  70  70 S8        30.00F
MILLARD        SUNNY     82  72  70 S8G17     30.01F
OFFUTT AFB     SUNNY     80  69  68 S12       30.02S
PLATTSMOUTH    SUNNY     79  69  72 S12       30.03F
WAHOO          FAIR      81  71  71 S10       30.00F
$$



USA.gov is the U.S. government's official web portal to all federal, state and local government web resources and services.